Theta_e
332 335 337 346 346 344 343 342 341 340 340 340 340 340 341 341 341 341 341 341 341 342 341 344 343 341 343 344 345 345 348 348 348 348 347 347 347 347 346 346 346 346 346 346 346 347 347 348 348 348 347 346 346 346 347 346 346 345 342 340 340 340 339 338 338 338 338 339 340 340 339 339 339 338 338 338 336 334 332 332 332 329 328 329 333
332 335 339 343 346 344 343 342 342 341 341 340 340 340 340 339 342 342 340 339 340 340 342 343 341 342 343 343 345 347 347 347 347 347 347 347 347 347 347 347 347 348 347 346 347 347 347 349 348 347 346 346 346 346 346 346 346 344 342 341 339 338 339 338 337 336 336 337 337 338 337 338 338 338 337 337 336 334 333 333 332 327 326 332 331
334 338 340 343 346 345 342 342 342 342 341 342 340 339 339 340 339 339 340 340 340 340 342 342 342 343 343 343 346 347 347 347 347 347 347 347 347 346 346 346 347 347 347 347 346 347 345 345 347 347 347 346 345 345 344 343 343 343 342 341 340 339 338 338 337 337 336 336 337 336 336 337 335 336 336 336 336 334 334 333 332 331 329 334 332
336 338 340 344 345 345 343 343 342 342 342 341 340 340 340 339 340 341 341 340 340 340 341 342 341 342 344 347 347 347 346 346 347 347 347 347 347 346 346 345 345 346 346 346 346 345 345 346 346 346 346 345 344 344 343 343 342 342 342 341 340 339 338 337 336 336 336 336 335 333 331 326 331 335 335 335 335 334 334 333 333 333 332 333 334
337 338 340 341 341 343 344 343 342 342 342 342 342 341 341 341 341 341 341 341 341 341 341 341 342 342 344 345 345 346 347 346 347 346 346 347 347 346 346 345 345 346 345 346 346 346 345 345 345 346 345 344 344 343 342 342 342 341 340 339 339 338 337 336 335 335 334 333 332 329 325 327 328 333 334 335 334 332 333 332 332 332 330 331 332
336 338 339 339 339 340 345 344 342 342 342 342 342 342 341 341 342 341 341 342 342 342 343 344 343 344 344 345 345 346 346 346 346 346 346 346 346 346 346 346 345 345 346 346 346 345 345 344 345 345 345 344 343 343 343 343 342 340 339 338 338 337 335 334 334 334 333 332 330 325 324 325 326 330 335 335 333 333 332 332 332 332 332 332 332
336 337 339 339 338 339 344 344 343 342 341 343 344 344 342 341 342 342 344 344 344 344 345 346 345 345 346 347 347 347 347 347 346 347 346 346 346 346 345 345 345 345 346 345 345 345 344 343 343 344 344 343 343 342 342 342 341 341 338 337 336 334 333 334 334 333 331 327 322 322 323 324 324 326 334 334 333 332 332 332 332 332 332 332 331
336 338 339 339 338 340 343 344 343 342 344 344 344 344 345 344 343 343 345 345 345 346 346 346 345 345 347 347 347 346 346 346 346 346 346 346 346 345 345 345 345 345 345 345 345 345 344 342 342 342 343 342 342 342 342 342 342 341 339 338 336 334 334 334 333 332 331 323 322 323 323 323 325 327 333 333 333 333 333 332 331 332 331 331 330
335 338 339 339 338 342 343 344 342 341 343 344 344 344 345 345 345 346 346 346 345 346 345 345 345 344 346 347 347 347 346 347 346 346 345 346 346 345 345 345 345 345 345 346 345 344 343 342 341 341 342 342 341 341 341 341 341 341 340 338 336 334 334 334 332 330 326 323 322 322 322 323 325 326 331 334 333 331 330 330 332 331 331 329 329
334 337 338 338 338 341 342 344 343 342 344 345 345 345 345 345 345 346 346 346 345 345 345 345 345 344 344 345 345 346 346 346 346 345 345 345 345 345 345 345 345 345 345 345 345 345 344 342 340 340 341 341 340 340 340 340 340 339 338 337 336 335 334 333 331 330 322 321 322 323 327 332 325 327 330 334 333 331 330 332 334 332 330 329 328
333 337 337 338 338 341 343 344 344 343 345 345 345 344 344 344 345 346 346 345 345 344 345 344 344 344 345 345 346 345 345 345 345 345 344 345 345 345 345 344 344 344 344 345 344 343 343 342 341 340 340 340 339 339 339 339 339 338 338 337 336 334 333 331 327 321 321 321 322 322 330 332 324 326 332 333 334 331 331 331 332 331 331 329 329
334 336 337 337 343 340 342 343 344 344 345 345 344 344 344 344 344 345 345 345 345 344 344 344 344 343 344 344 344 345 345 345 345 344 344 344 344 344 345 344 344 344 343 343 343 343 342 341 340 339 338 338 338 338 338 338 338 337 337 336 334 333 333 330 323 321 321 323 324 323 323 324 324 329 333 332 332 331 330 331 331 332 332 330 329
334 336 336 337 338 339 341 342 342 343 345 344 343 344 344 344 345 345 345 345 345 344 344 344 343 343 343 344 344 344 344 344 344 344 344 343 343 344 344 343 343 343 342 342 342 342 341 340 339 338 337 336 336 336 336 337 337 337 337 336 333 332 331 329 321 320 320 320 322 321 322 322 326 331 332 333 331 332 333 332 332 331 330 330 329
334 335 336 337 337 342 339 340 341 342 342 343 344 344 344 344 344 345 345 345 345 344 344 343 342 343 344 344 344 344 344 344 343 343 343 342 342 343 342 342 342 342 341 342 341 340 340 339 338 337 335 334 334 335 335 335 336 336 336 335 333 332 329 328 325 319 320 321 322 321 320 324 327 331 331 332 332 331 331 331 331 330 331 329 329
334 334 335 337 337 337 342 338 339 340 341 342 344 344 343 344 344 344 345 345 344 343 343 342 342 342 343 344 344 343 343 343 343 342 342 342 341 341 342 341 341 340 340 340 340 340 339 338 337 336 334 333 333 333 334 334 334 335 334 334 334 330 326 321 321 319 321 322 320 322 322 325 332 331 332 332 332 332 331 330 331 331 331 329 329
335 334 335 336 336 336 336 340 337 338 338 340 341 342 343 344 344 344 344 344 343 343 343 342 342 342 343 343 343 343 343 342 342 343 342 341 341 340 340 340 340 340 340 340 340 339 338 337 335 335 333 333 333 333 333 333 333 333 334 333 331 328 325 322 320 318 318 320 321 323 323 325 332 331 332 332 332 333 333 330 330 330 329 328 328
335 335 335 335 335 335 336 337 335 335 335 336 337 340 342 343 344 343 343 344 343 343 343 343 343 343 342 343 343 343 343 342 342 342 340 341 340 341 341 339 339 339 339 339 339 338 337 336 335 334 333 332 332 332 333 332 332 333 333 331 330 328 325 323 320 317 318 321 322 323 324 326 332 330 330 332 332 331 331 331 331 329 328 328 328
334 335 335 335 335 335 336 334 333 333 332 333 334 337 339 342 342 342 342 342 342 342 342 342 343 343 342 341 341 341 341 341 341 340 340 340 340 339 339 340 339 338 338 338 338 338 337 336 334 333 333 332 331 332 332 332 332 333 330 329 328 326 324 322 319 319 320 323 319 323 324 336 331 329 331 332 331 331 330 330 330 329 329 329 329
333 334 335 335 335 335 337 334 331 331 331 330 330 335 336 338 339 339 340 340 340 339 339 339 339 338 338 337 338 338 337 337 337 337 337 337 336 334 335 338 338 338 338 338 337 336 336 335 334 334 333 332 331 331 331 332 331 330 329 327 325 324 323 321 318 317 317 318 319 320 325 336 335 335 333 332 332 331 330 330 329 330 329 328 329
331 332 335 335 335 335 337 335 332 331 330 329 329 332 334 334 336 337 337 337 336 336 335 335 333 332 332 332 332 333 333 332 332 332 333 334 334 330 332 337 338 338 337 337 337 336 336 336 334 333 332 331 331 331 331 331 331 330 328 326 323 320 318 316 316 316 317 319 320 320 331 336 334 335 335 333 332 331 331 331 333 333 332 333 332
329 330 333 334 334 334 336 335 332 331 330 329 329 331 334 333 333 333 332 332 333 333 332 329 327 326 327 326 328 328 328 329 329 328 328 328 325 326 330 335 337 338 337 336 336 335 335 336 335 334 332 332 332 330 328 330 329 329 326 323 319 317 317 316 317 318 316 318 320 321 333 334 333 334 334 334 333 333 333 331 332 333 333 333 332
325 327 330 332 333 334 336 335 333 331 329 330 330 330 334 334 335 334 332 331 330 330 329 330 331 327 325 326 327 327 326 326 326 330 325 326 326 325 327 331 335 336 336 336 335 335 334 336 335 334 333 332 328 314 316 320 324 326 322 319 314 314 315 316 315 315 315 315 318 325 333 330 331 332 333 333 333 332 332 331 333 332 333 333 333
322 324 327 330 332 333 334 334 333 332 329 329 329 329 333 334 334 334 331 330 330 330 329 329 328 327 326 327 326 326 326 325 325 326 327 323 326 325 327 330 332 332 333 334 335 335 335 335 335 335 333 328 317 315 313 312 311 318 317 314 312 312 313 315 314 316 315 315 316 329 332 329 328 330 330 331 332 331 330 331 332 332 333 332 332
322 323 325 327 330 331 333 334 333 333 330 329 328 328 332 334 334 333 331 331 330 329 329 328 327 327 326 326 326 325 325 325 327 327 326 325 324 323 325 327 328 328 328 329 331 331 334 334 334 332 329 321 314 315 315 314 314 313 312 313 312 312 312 313 314 313 313 315 314 328 332 329 328 328 330 330 330 329 330 331 332 332 332 332 332
321 320 322 325 327 330 332 333 333 333 331 329 327 327 329 333 334 333 332 332 330 328 328 328 327 327 326 326 325 324 325 326 325 325 326 326 326 327 326 326 325 325 324 321 320 320 322 317 318 318 313 314 315 313 314 316 314 314 314 313 313 313 313 312 313 311 313 313 315 326 328 331 329 329 329 330 329 330 331 331 331 331 331 331 331
318 319 321 323 324 328 331 332 332 332 332 330 328 327 328 330 332 333 332 332 331 330 328 328 327 327 326 325 324 324 324 325 325 325 325 326 326 326 326 326 324 322 322 320 316 317 315 314 313 314 313 312 313 314 315 314 315 312 312 313 312 313 312 312 313 313 314 314 315 325 328 330 329 329 328 329 330 330 330 329 330 331 330 330 330
319 319 321 322 323 326 330 331 331 331 332 332 330 327 327 329 332 332 332 331 332 330 329 328 327 327 326 324 324 323 324 325 325 325 324 325 325 326 326 325 323 322 322 319 316 315 315 314 314 315 313 312 312 313 312 312 312 312 312 313 312 312 311 311 312 314 314 313 317 323 327 330 329 328 327 329 329 329 329 329 330 330 330 330 329
320 319 320 321 321 323 328 329 329 330 332 332 330 327 327 327 329 329 331 330 330 331 330 328 327 327 326 325 325 324 325 325 325 324 324 324 325 325 325 324 324 322 322 320 316 315 314 315 314 313 313 312 312 312 313 313 312 311 313 312 311 311 310 311 311 313 314 314 315 320 324 328 329 328 328 329 329 329 329 329 329 329 329 329 329
319 319 320 320 321 321 324 327 327 327 332 333 330 329 327 327 326 328 330 328 330 330 330 327 327 327 326 325 324 324 324 325 324 325 324 323 324 324 324 324 323 322 321 320 317 317 315 315 316 316 313 316 312 313 314 315 311 310 312 311 311 311 311 310 311 311 312 313 314 315 321 324 327 330 329 329 329 329 329 328 328 328 328 329 328
320 321 319 320 321 322 322 324 327 327 331 332 331 329 328 327 326 327 328 326 328 329 327 327 327 327 327 325 324 324 324 324 324 323 322 322 323 323 323 323 322 321 320 320 318 317 317 314 315 316 317 314 313 316 313 314 313 311 310 310 310 314 314 312 312 312 313 313 313 315 318 321 326 329 328 327 328 328 326 327 327 327 327 327 327
320 320 320 320 321 321 322 322 326 325 329 331 331 330 328 327 326 326 326 325 326 326 326 326 326 326 327 326 324 323 324 324 324 322 321 321 321 321 321 321 320 319 320 320 318 318 318 317 317 317 316 315 315 314 313 315 313 312 310 311 314 314 315 313 312 312 312 313 314 316 317 319 323 326 327 327 326 326 326 326 326 325 326 326 327
320 319 320 321 321 321 323 323 324 324 326 330 330 330 329 328 326 326 325 325 325 325 325 325 324 325 326 326 324 323 322 323 323 322 321 320 320 319 319 318 319 319 319 320 317 317 319 318 317 317 317 317 317 315 314 313 315 315 311 311 312 314 314 313 312 311 312 314 315 316 315 316 319 322 325 326 326 326 326 325 324 324 323 324 324
322 321 320 320 320 321 323 323 323 324 324 327 329 329 329 328 326 324 325 324 324 324 323 323 323 324 325 326 324 323 321 322 322 322 319 320 319 319 318 318 318 319 319 320 318 316 316 315 316 316 315 315 315 315 311 311 315 315 313 315 313 314 315 313 314 313 314 317 316 316 316 318 319 318 320 322 325 326 325 324 323 322 322 321 322
322 321 320 320 321 322 323 324 323 323 323 324 327 326 326 326 324 323 323 323 323 323 323 322 322 322 324 325 324 323 321 321 321 320 320 319 319 319 319 318 318 317 318 318 317 315 316 315 316 315 315 314 314 315 311 313 312 312 312 315 313 315 315 315 314 314 314 315 316 315 314 315 314 314 315 318 321 324 323 322 321 320 320 319 319
322 320 320 320 321 322 323 323 322 322 322 323 323 325 324 324 323 322 322 322 323 323 323 322 321 322 323 324 324 323 322 321 321 321 319 319 318 318 318 319 318 317 317 317 318 316 316 316 314 315 315 313 313 314 313 314 313 314 313 313 314 315 314 315 315 314 314 315 315 315 313 313 311 311 314 313 316 319 322 321 321 319 318 317 318
323 322 321 320 320 321 322 323 322 322 322 323 323 323 323 323 322 320 321 321 322 322 322 322 322 321 322 323 324 323 322 322 321 321 320 319 319 319 319 318 318 317 317 316 316 316 315 315 314 315 314 314 313 314 311 313 313 314 314 311 313 314 314 314 315 315 315 314 314 315 314 312 311 312 312 311 311 313 319 319 318 317 316 316 317
324 323 321 320 320 321 321 322 322 322 322 322 323 323 323 322 322 321 321 321 321 321 322 322 322 322 322 322 323 323 322 322 322 322 321 320 320 320 320 319 318 318 317 317 316 317 316 316 314 313 316 316 314 314 312 311 312 313 313 311 312 313 313 315 316 316 316 314 314 314 313 312 311 308 309 308 309 310 314 316 316 315 315 315 317
325 324 323 321 320 321 321 322 323 323 323 322 322 323 323 322 322 321 320 321 321 321 322 322 322 322 322 322 322 323 322 322 322 322 322 321 321 320 319 319 319 318 318 317 317 316 316 316 315 313 314 315 314 314 314 313 313 313 313 312 312 311 314 315 316 314 314 315 313 312 313 312 309 307 306 307 307 308 310 313 314 314 313 315 317
326 325 324 323 321 321 321 320 321 322 322 322 322 322 322 322 321 321 320 321 321 321 322 321 323 323 322 322 322 322 321 322 322 322 322 321 320 320 320 319 319 319 318 317 317 316 315 314 315 314 312 314 315 314 315 314 313 313 313 313 313 312 314 315 315 314 313 315 314 313 309 309 308 306 305 305 306 306 307 307 306 305 306 313 314
325 325 324 323 322 321 320 321 321 322 322 322 321 321 320 320 319 319 319 319 320 320 321 322 322 323 323 322 322 323 322 322 323 322 322 321 320 320 320 320 319 319 318 317 317 317 316 314 314 314 313 312 312 313 312 311 311 311 311 312 313 313 313 313 313 313 313 313 312 310 309 307 308 306 305 305 305 305 305 304 303 303 305 309 312
325 325 324 323 322 321 320 320 321 322 322 321 320 320 319 319 319 319 319 320 320 320 320 321 322 322 322 323 322 323 323 322 322 322 322 320 321 321 320 320 320 319 319 319 318 318 318 317 316 314 314 313 313 312 311 312 311 308 307 309 312 313 313 312 314 313 311 311 308 309 306 306 306 306 305 305 305 303 303 302 302 303 302 302 306
323 324 324 324 324 323 321 321 321 321 322 322 321 320 321 321 320 320 320 321 320 319 320 321 321 322 322 322 322 323 323 323 321 323 322 322 321 321 320 320 320 320 320 319 318 316 317 317 316 314 313 314 313 313 313 313 309 310 306 308 308 313 312 311 311 310 309 307 308 309 307 307 306 306 305 305 305 303 302 302 302 302 300 300 300
323 324 325 324 324 323 322 321 321 321 322 322 322 321 322 321 321 321 321 320 322 322 322 321 321 321 322 322 322 323 323 323 323 322 323 322 322 322 321 321 321 320 318 318 318 317 317 317 316 316 313 311 313 313 314 315 312 307 305 307 304 303 309 310 310 309 308 306 307 308 307 307 307 306 305 304 303 301 301 301 301 301 299 298 297
322 323 324 324 324 323 323 322 322 321 322 322 321 323 322 322 322 321 321 321 320 320 321 319 321 321 321 322 322 322 323 323 323 323 323 323 323 322 322 321 321 321 320 319 318 318 318 317 317 316 315 312 312 313 314 315 314 310 306 309 305 304 302 305 307 305 304 306 307 307 306 308 307 305 304 303 301 300 301 301 301 300 299 298 297
322 323 324 324 325 324 324 323 323 322 322 321 321 322 321 320 320 316 316 318 315 318 318 319 320 320 321 321 322 322 322 323 324 323 322 323 323 323 322 322 321 321 320 320 319 319 319 318 318 316 315 315 312 313 313 314 315 317 312 304 303 304 307 297 299 303 302 303 304 305 305 306 306 305 303 302 300 301 300 300 300 300 299 297 296
321 323 324 325 325 325 325 324 324 323 322 322 322 322 321 321 319 318 316 317 317 317 317 318 319 319 320 322 322 322 322 322 323 324 323 321 323 323 322 322 321 320 320 321 321 320 319 318 318 318 317 317 316 313 312 311 315 315 317 316 312 308 303 298 301 299 300 301 303 304 305 306 306 304 302 300 300 300 300 300 299 299 298 296 295
321 323 324 324 325 325 325 325 324 324 323 322 322 321 321 321 320 319 319 318 318 319 320 321 320 321 321 321 322 322 323 322 322 323 323 322 322 322 322 321 321 321 320 321 321 320 320 319 319 319 318 317 316 314 313 314 309 314 316 316 309 297 303 303 302 296 298 304 305 305 304 304 304 302 301 300 300 300 300 300 299 298 297 296 295
320 322 323 324 324 324 325 325 325 323 324 323 322 322 321 321 320 320 319 319 319 319 320 320 321 320 320 321 321 322 322 323 323 323 323 323 321 322 322 321 321 321 319 320 321 321 321 321 319 320 319 318 317 316 315 314 313 314 314 314 314 306 304 303 301 304 298 296 302 305 305 304 302 301 301 301 301 301 300 299 299 298 297 296 295
319 321 322 323 324 324 324 325 325 324 324 323 322 322 321 321 321 320 319 319 320 320 319 319 320 319 320 320 321 321 322 323 323 323 323 323 320 321 321 321 320 320 318 319 320 321 320 320 319 318 318 318 318 318 317 316 315 315 311 313 314 314 308 304 301 304 300 295 298 303 305 303 303 303 300 301 302 301 301 300 300 299 297 295 294
318 320 322 323 323 324 324 323 324 325 324 324 322 322 321 320 321 320 319 319 319 319 318 318 319 319 319 320 320 321 321 322 322 323 323 323 322 320 321 321 320 320 317 318 319 319 320 320 320 319 319 318 319 318 317 318 317 317 315 314 313 313 312 310 305 302 299 301 301 300 305 303 301 304 303 301 301 301 300 300 299 298 296 294 293
316 318 320 321 323 323 323 323 324 325 325 324 323 322 321 321 321 321 320 319 319 319 318 317 318 319 319 319 320 320 321 321 322 322 323 323 323 322 321 321 321 319 317 318 318 319 320 320 320 319 318 319 319 318 316 317 317 316 315 315 314 314 313 312 312 308 306 298 297 299 302 304 304 303 301 301 299 300 300 300 299 298 296 294 292
Wind_Speed
5 8 4 9 11 12 11 12 11 11 10 10 10 11 10 11 10 10 8 8 8 11 10 12 12 11 12 12 12 13 13 13 13 13 14 14 14 14 13 14 14 14 15 16 17 19 18 20 20 21 21 21 20 20 20 20 19 20 20 20 20 20 19 19 20 20 20 20 21 21 19 19 19 19 20 20 19 18 16 17 13 9 8 13 17
9 5 5 6 12 12 12 12 12 11 11 11 10 10 10 10 11 10 10 9 9 9 12 11 11 12 13 12 13 13 13 13 14 14 14 14 14 14 15 15 16 16 17 18 17 19 18 18 20 21 20 19 19 19 19 18 18 19 20 19 19 19 19 19 19 18 19 18 19 19 19 19 19 19 19 19 19 18 14 17 18 8 6 17 17
6 6 5 7 11 11 12 13 13 12 11 10 10 11 10 11 10 10 9 10 10 11 12 12 12 12 13 13 14 12 12 13 14 14 15 15 15 14 16 16 17 18 18 18 17 17 19 19 20 19 19 19 19 18 18 18 17 18 19 19 19 19 19 18 18 18 17 16 15 16 17 19 18 18 19 19 19 16 13 18 17 13 12 19 16
9 6 5 8 11 11 11 13 13 12 12 11 11 11 11 11 10 11 12 11 9 10 12 12 13 13 14 14 13 13 13 14 14 14 15 15 15 15 16 17 18 18 18 19 18 19 19 19 19 19 18 18 18 17 17 16 15 16 18 19 18 18 19 18 18 16 15 14 13 10 5 5 11 17 18 19 19 17 15 17 18 18 19 17 19
9 6 5 5 6 9 10 12 13 12 13 13 12 11 11 12 11 12 12 12 10 10 11 12 13 14 14 13 13 13 13 13 14 15 15 15 16 16 16 17 18 18 18 19 19 19 19 19 18 18 18 17 17 16 16 17 17 18 18 18 18 19 19 19 18 15 14 14 13 8 6 6 6 15 17 18 18 14 15 16 17 18 14 15 20
8 6 4 4 6 6 9 12 13 14 14 13 12 11 11 12 11 12 12 13 12 11 11 13 13 12 13 14 14 14 13 14 14 14 14 15 15 16 16 16 17 17 18 19 19 19 18 18 17 17 17 16 16 16 16 17 18 18 17 17 18 18 18 17 15 14 13 12 11 7 7 6 3 7 18 17 17 14 16 17 17 16 16 19 18
10 5 5 5 5 6 8 12 13 13 13 12 12 11 10 10 11 12 13 12 12 12 12 13 13 12 12 12 12 13 13 13 13 14 14 15 15 15 15 16 16 17 18 18 18 18 17 17 16 16 16 15 16 16 16 16 16 17 17 18 18 18 17 15 14 12 12 7 6 6 5 5 5 5 17 16 16 17 16 16 16 16 16 17 16
7 5 5 5 5 7 9 11 12 12 13 11 12 11 10 9 9 12 13 12 12 12 12 12 13 13 13 14 13 13 13 14 14 14 13 14 14 14 14 15 16 17 18 18 17 17 16 16 16 16 15 15 15 15 15 15 16 17 18 18 18 18 17 15 12 11 10 6 4 5 5 4 5 5 15 15 16 16 16 16 15 16 16 15 12
7 6 6 5 5 10 10 10 11 12 12 11 11 11 10 11 11 10 12 14 13 13 13 13 12 12 13 13 12 13 14 14 14 14 15 14 14 15 14 15 15 17 17 17 17 16 16 15 15 15 15 14 14 14 14 15 16 16 17 18 18 16 14 12 11 9 5 4 4 5 4 4 4 5 12 16 15 16 15 10 10 15 15 12 14
6 5 5 5 6 9 10 10 12 12 12 11 10 11 11 11 12 12 12 13 13 13 12 12 12 12 12 13 13 13 14 15 14 15 14 15 15 14 15 15 15 16 16 16 16 16 15 14 14 14 14 13 13 13 13 14 15 15 17 18 17 15 13 11 10 6 4 4 3 3 2 4 4 3 11 16 14 14 11 7 8 8 9 14 15
7 6 5 6 6 9 10 10 10 12 13 11 11 11 11 11 12 13 13 14 13 13 12 12 13 13 13 13 13 14 14 14 14 14 15 14 14 15 14 14 14 14 15 15 15 15 14 14 13 13 13 13 12 12 12 13 14 14 15 16 15 14 12 10 7 5 4 5 4 3 3 5 2 4 12 14 14 12 5 6 11 9 13 14 14
8 7 6 6 8 10 10 10 9 10 13 12 12 11 10 10 12 13 14 13 13 14 14 13 12 13 12 12 13 13 13 14 14 14 15 15 15 15 14 14 14 14 14 14 14 15 14 13 13 12 12 12 11 11 12 12 13 14 14 13 13 12 11 9 6 5 5 5 5 4 4 4 4 7 14 14 14 12 11 13 14 13 13 12 12
9 7 6 6 6 9 10 10 10 8 12 13 12 12 11 10 11 13 13 13 13 14 14 13 13 13 13 13 13 13 13 14 13 14 13 14 15 15 14 15 14 14 13 14 14 13 13 12 12 12 11 11 11 11 11 11 12 12 12 11 11 11 9 8 5 5 4 4 4 4 4 4 4 11 11 12 13 13 13 12 13 12 13 11 12
10 8 7 7 5 12 10 11 10 8 8 10 12 11 11 11 12 12 13 13 13 13 13 13 14 13 13 13 14 14 14 14 13 13 13 13 14 13 13 13 13 13 13 13 13 13 12 12 12 11 10 10 10 10 10 10 11 11 11 11 10 9 10 6 5 4 4 4 4 4 4 2 5 10 10 11 10 11 11 11 11 11 13 12 11
10 9 8 7 6 6 10 10 10 10 7 8 11 9 11 11 11 12 12 13 13 13 12 13 13 13 13 13 13 13 14 13 13 12 11 11 11 13 13 13 12 12 12 13 13 13 12 11 11 10 10 9 10 9 9 10 10 10 11 11 8 8 8 5 4 4 4 4 3 4 4 4 7 9 9 9 9 8 9 10 10 11 12 11 10
10 9 8 7 6 6 6 8 10 10 9 8 10 9 9 10 10 11 11 10 12 12 12 12 12 12 12 12 13 13 13 12 11 9 9 9 11 11 11 12 12 12 12 13 12 12 11 11 10 10 9 9 9 9 9 9 9 9 9 10 9 8 7 6 4 3 3 4 3 3 3 2 4 8 10 9 9 10 10 9 9 9 9 7 8
10 9 8 8 7 5 6 5 7 10 9 9 10 10 9 9 9 10 10 7 10 9 10 10 9 10 11 9 8 9 9 9 9 8 8 9 10 9 10 11 11 12 12 12 12 11 11 10 10 9 8 8 8 9 8 8 7 8 7 8 9 8 8 6 5 3 3 3 2 3 3 3 2 6 7 9 8 7 8 8 8 6 6 6 5
10 10 9 8 7 6 6 6 6 7 5 7 10 10 9 10 10 9 9 6 8 8 8 8 7 9 9 9 8 9 9 9 8 8 8 8 8 8 8 9 11 11 11 11 11 11 10 10 9 8 8 8 7 8 7 7 6 6 7 8 9 8 7 7 4 4 3 3 3 2 3 4 5 5 7 7 7 7 6 7 6 5 5 5 5
9 10 9 9 8 6 7 6 5 6 6 5 4 8 11 10 10 10 10 8 8 8 8 8 10 9 9 8 9 10 9 9 8 9 8 8 8 8 7 8 10 10 10 10 10 10 9 9 8 8 7 6 6 6 5 5 5 7 7 7 8 7 8 5 4 3 3 2 1 3 3 7 6 8 6 7 8 6 5 5 4 5 5 4 5
7 8 9 9 8 7 7 6 6 6 6 5 5 6 10 11 10 10 9 8 9 10 10 10 10 10 9 8 9 8 8 7 9 7 9 9 8 6 7 8 9 10 10 10 9 9 9 8 8 7 6 5 5 4 3 4 6 6 6 6 6 7 5 4 4 3 3 2 1 3 5 5 6 6 7 6 6 4 5 6 7 6 6 8 8
6 8 8 8 9 9 9 7 6 7 7 6 6 6 8 12 10 10 9 10 10 11 11 11 10 9 9 8 8 5 4 5 6 5 7 5 7 7 6 7 8 9 9 10 9 9 8 7 7 7 6 4 2 3 3 4 5 5 4 5 6 6 4 4 4 4 3 2 2 2 4 4 4 6 6 4 4 5 6 5 6 6 7 7 7
8 7 8 9 9 9 10 9 7 7 7 6 5 5 6 9 7 7 6 8 9 9 8 7 7 6 9 7 5 5 5 4 5 5 5 5 6 8 7 6 6 7 7 8 9 8 8 7 7 6 5 3 2 1 2 4 4 5 4 5 3 4 4 4 4 3 3 2 2 3 4 3 3 3 4 4 4 5 5 5 7 7 8 8 8
8 8 8 10 10 9 9 10 9 8 7 6 5 6 7 7 8 7 6 8 7 8 7 7 6 6 6 6 5 5 5 4 5 5 5 5 6 9 9 9 7 6 6 6 6 6 6 6 6 4 3 3 1 0 1 1 2 5 4 2 1 1 2 4 3 4 4 3 3 4 4 4 2 0 0 2 3 3 3 5 7 7 6 6 6
10 9 9 7 9 10 11 10 11 10 9 7 6 6 6 8 8 7 6 6 6 6 6 6 6 6 6 6 5 5 5 4 6 9 7 4 4 7 9 9 9 8 8 5 5 3 3 4 3 3 3 2 1 1 1 1 0 1 2 2 2 1 1 3 4 3 3 3 3 4 3 3 2 1 1 1 2 2 4 5 5 5 5 6 5
7 6 6 9 10 10 10 10 10 10 10 8 8 7 6 7 9 7 6 6 6 6 6 6 6 6 6 5 5 4 4 4 5 4 4 4 4 3 4 4 3 3 5 4 4 3 1 2 1 1 2 2 2 3 2 3 1 2 3 2 1 1 0 2 4 3 3 3 3 4 3 3 3 2 0 1 1 3 3 4 5 5 6 6 5
4 8 10 8 10 10 10 9 10 10 10 9 8 7 8 8 10 8 5 6 7 6 5 6 6 6 6 5 5 6 5 5 5 6 5 5 5 4 4 3 3 3 2 4 3 3 2 3 3 3 3 2 2 3 3 3 3 2 3 1 2 2 1 3 3 5 4 3 3 5 4 2 2 2 1 0 1 2 2 2 4 4 5 5 4
8 8 7 7 8 9 10 10 10 10 11 9 7 7 7 7 7 8 7 6 6 7 6 6 6 6 6 5 6 6 6 6 5 5 6 6 6 5 5 4 4 4 2 3 4 4 4 4 3 4 3 3 3 3 3 3 3 3 1 1 1 2 1 3 3 4 4 4 4 7 5 4 4 3 2 1 0 0 1 2 3 4 5 4 3
8 9 8 8 8 11 10 9 10 10 10 9 9 8 8 7 8 7 8 9 8 7 7 7 6 7 6 6 6 6 7 6 6 6 6 6 7 7 5 5 4 4 4 4 5 4 4 4 3 4 3 3 3 3 3 3 3 2 2 2 2 3 2 1 3 3 4 4 4 5 5 4 3 3 3 2 1 1 1 1 3 3 5 3 3
11 10 9 9 9 9 10 11 10 11 10 9 9 8 8 8 8 8 8 8 8 7 7 7 7 6 6 7 6 6 6 7 7 7 6 7 7 6 5 6 6 5 5 5 4 5 5 5 5 5 4 4 3 3 4 5 3 3 3 3 3 2 2 2 2 3 3 4 4 4 5 4 3 3 3 3 2 1 1 1 2 3 4 4 3
13 11 11 11 9 8 10 12 11 11 10 10 9 8 9 9 9 9 8 8 8 7 6 7 7 7 7 6 7 7 7 7 7 6 7 7 7 7 6 6 6 5 5 6 5 5 6 5 4 5 4 4 3 5 5 4 3 3 3 3 3 4 4 3 4 4 4 4 4 4 6 6 4 2 3 3 3 2 1 0 1 2 4 3 3
11 12 12 11 10 10 10 11 11 9 9 10 9 9 9 9 9 8 8 8 7 7 7 7 7 7 7 6 6 7 7 7 7 7 7 7 7 7 7 6 6 6 5 6 5 5 5 5 6 5 5 4 5 4 4 4 4 3 3 3 5 3 4 4 2 3 3 4 4 4 5 6 4 5 5 4 4 3 2 1 0 2 3 3 3
13 15 13 10 11 13 12 12 11 10 10 10 9 9 10 9 8 8 8 8 8 7 7 7 8 7 7 6 6 6 7 7 8 7 8 7 7 7 7 6 7 6 6 6 6 6 6 6 5 5 5 5 5 5 5 4 4 4 3 4 3 4 6 4 3 3 3 3 5 5 4 4 5 6 5 5 5 4 4 3 2 1 1 3 4
12 12 11 11 14 13 13 13 11 10 11 12 10 10 9 9 9 9 8 8 8 8 8 8 8 7 7 8 7 7 7 8 8 8 8 8 7 7 7 7 7 7 7 7 6 6 5 5 5 5 5 4 5 6 3 3 4 5 4 5 4 4 5 4 5 4 4 5 5 4 4 5 5 6 7 7 6 6 5 4 3 3 2 2 4
11 9 10 14 13 9 10 10 11 12 12 10 10 9 9 9 8 8 8 9 8 8 9 8 8 8 8 8 8 8 8 7 8 7 7 7 7 8 8 7 7 7 7 7 7 6 6 6 7 6 6 6 6 6 4 4 5 4 4 5 4 6 5 5 6 6 5 5 6 6 6 5 5 5 4 6 7 6 7 6 5 3 2 2 4
10 10 16 17 13 12 10 10 12 13 13 12 11 11 9 9 8 8 8 9 9 9 9 8 8 8 8 8 9 8 9 8 8 9 8 8 8 8 8 8 7 6 7 7 7 7 6 7 6 6 6 5 6 7 5 6 6 7 7 6 6 6 5 6 6 5 5 6 5 4 5 5 5 5 5 5 6 7 7 7 5 4 2 1 4
16 16 14 12 15 14 14 13 13 15 15 15 13 11 11 10 9 8 9 9 9 9 9 9 8 8 8 9 9 9 9 10 9 9 9 8 8 8 8 7 7 6 7 6 6 7 6 6 6 6 6 6 6 7 5 6 6 7 6 6 6 6 7 6 6 6 6 4 4 5 6 6 5 5 5 6 5 5 7 6 7 5 2 2 2
16 14 14 14 15 16 15 16 17 18 16 16 15 12 11 11 10 10 10 10 10 9 9 9 8 8 8 9 10 10 9 10 10 10 9 9 8 8 7 7 6 7 7 6 7 7 6 7 6 7 7 7 8 7 6 6 6 7 7 5 6 6 6 7 7 7 6 5 5 5 5 6 6 4 4 5 5 4 6 8 7 6 2 1 5
14 15 15 16 17 16 15 16 15 15 14 14 14 13 11 11 10 9 9 10 10 9 9 8 9 9 9 9 10 10 10 10 10 10 9 9 8 8 7 8 7 7 7 6 7 6 6 7 8 7 7 7 7 8 8 6 6 6 6 6 6 6 7 7 7 7 7 7 5 6 7 6 6 6 6 5 5 5 4 7 8 6 4 2 4
12 14 14 14 13 13 13 15 14 13 12 12 11 10 9 8 7 8 9 10 9 9 9 9 9 9 9 9 9 9 10 10 10 10 9 8 8 8 8 8 7 8 7 7 7 7 7 7 8 8 6 7 7 8 8 7 6 6 6 7 6 6 7 7 7 7 7 7 7 7 5 6 6 6 6 6 5 5 5 5 5 4 3 5 4
13 13 14 12 13 13 12 12 13 13 12 10 9 9 8 9 9 7 8 10 10 9 9 10 9 10 10 10 9 9 9 10 10 10 9 9 8 8 9 8 9 9 9 9 9 8 10 9 9 8 7 7 6 6 6 6 5 6 7 7 6 6 6 7 7 7 7 6 6 5 6 5 6 6 6 6 5 5 5 5 4 5 4 5 5
13 13 14 14 15 14 13 16 14 13 12 12 11 12 12 11 9 12 14 12 11 10 10 10 11 11 11 11 10 9 9 10 10 10 10 9 9 8 9 9 9 10 10 11 10 10 10 9 8 7 9 9 8 6 5 5 5 4 4 5 6 6 7 6 7 7 6 6 4 6 5 5 5 6 6 6 6 5 5 5 5 5 4 3 4
12 13 16 17 16 16 15 15 11 13 14 15 14 13 13 14 14 15 13 11 11 12 13 11 12 10 11 11 11 10 10 10 10 10 10 11 10 10 10 10 10 10 10 9 9 9 9 9 7 7 7 10 9 7 7 6 5 7 5 3 5 6 6 5 7 6 5 4 5 6 5 6 6 5 5 6 6 6 5 5 5 5 4 4 3
16 17 18 16 16 15 15 14 13 14 14 15 13 14 13 13 13 10 11 9 8 9 8 8 7 9 11 12 11 11 11 11 11 11 11 11 12 11 11 10 10 10 9 10 10 11 10 12 11 11 8 6 7 6 9 11 7 4 2 0 4 2 5 4 5 5 4 5 5 5 6 6 8 7 6 6 6 6 5 5 5 5 4 4 4
12 12 13 16 15 15 15 15 15 14 13 14 15 15 13 11 9 5 6 8 7 6 6 5 8 10 12 12 11 12 13 12 12 12 11 11 12 12 10 10 11 10 11 11 11 12 11 11 11 12 9 8 8 9 8 10 7 8 3 8 3 2 5 7 7 4 3 5 7 7 6 7 6 5 5 6 6 5 5 5 6 6 5 4 4
14 15 16 16 14 18 18 17 16 16 15 14 16 12 9 8 7 4 4 4 2 6 7 9 12 13 12 12 15 13 12 13 13 13 12 13 12 11 11 11 11 11 10 12 12 14 13 12 13 12 13 12 10 7 7 9 11 10 7 4 1 2 7 2 0 5 1 3 5 4 6 6 7 7 7 5 4 5 6 5 5 5 5 5 4
16 16 15 17 15 15 16 15 14 13 15 15 15 11 11 12 10 10 10 11 12 11 14 18 16 15 18 13 9 12 13 13 13 13 14 12 13 13 12 12 12 11 12 12 12 11 13 13 14 13 13 13 10 8 8 6 11 12 11 9 5 6 4 3 2 4 2 2 2 4 5 6 7 7 5 5 6 5 5 6 5 6 6 5 5
17 14 13 14 16 15 15 16 15 14 14 14 14 12 12 11 14 15 15 15 16 14 14 12 10 11 8 10 12 11 13 14 14 13 13 14 13 12 13 13 12 12 11 11 13 14 12 13 11 12 13 11 9 10 12 9 4 8 10 11 4 1 6 6 5 2 3 2 2 4 4 4 5 6 7 6 6 6 5 5 6 6 6 5 5
16 13 14 14 16 16 15 16 14 14 13 12 14 15 14 14 14 15 14 15 15 15 13 12 8 6 10 12 10 11 12 13 13 13 14 14 13 13 13 13 13 13 12 13 13 12 10 10 12 13 11 10 12 13 11 8 11 10 9 11 10 4 3 3 6 8 5 3 3 1 2 4 3 5 6 7 7 8 7 6 6 6 6 5 5
13 13 14 14 14 14 15 14 15 14 13 15 15 15 15 15 15 14 14 13 12 11 7 7 9 8 10 10 11 11 11 13 13 13 13 14 13 13 13 14 14 14 12 12 11 12 13 12 12 11 13 12 11 12 10 11 11 11 7 10 8 9 6 4 2 5 6 5 5 7 6 2 3 5 5 5 7 7 8 8 8 7 6 6 6
11 12 12 11 12 12 14 15 16 14 13 14 15 16 17 15 15 15 17 14 11 10 8 9 9 8 11 11 11 11 11 11 12 12 13 13 13 13 13 15 14 13 11 13 12 12 12 12 13 13 13 13 11 11 13 11 9 9 9 7 9 8 7 6 4 3 3 4 7 6 8 9 10 9 6 7 7 7 7 7 7 6 6 6 5
8 9 10 11 11 12 14 16 17 14 14 16 16 18 16 16 16 17 18 17 15 13 11 10 9 10 12 12 12 12 10 11 11 12 13 13 13 13 13 14 12 12 12 13 13 13 13 12 11 11 12 14 11 11 11 11 8 8 9 9 10 11 12 11 10 7 8 5 4 5 5 10 11 8 8 7 7 7 8 7 8 8 7 6 6
Wind_Direction
196 161 187 150 140 135 133 128 119 117 121 114 117 123 121 109 105 97 105 110 109 114 106 102 97 101 107 105 105 100 94 96 95 94 91 92 94 94 97 97 96 95 95 92 92 101 99 98 99 92 88 85 84 82 81 81 82 82 81 81 81 81 80 79 79 77 73 72 73 73 72 71 69 69 70 70 68 69 67 65 59 52 59 59 55
165 175 163 151 144 139 135 128 122 123 126 124 123 118 109 111 109 108 117 123 115 119 114 108 108 109 110 113 109 103 102 100 99 98 96 96 94 96 94 93 92 90 93 96 94 92 92 91 93 89 88 87 83 81 80 80 80 83 84 83 83 82 80 77 75 73 73 75 78 78 75 72 70 71 72 72 71 72 74 70 71 74 81 74 69
141 152 160 151 145 141 139 133 124 124 126 122 122 121 126 112 117 121 116 113 118 126 112 108 108 109 119 116 108 101 99 100 101 101 102 100 98 98 98 101 99 97 96 99 103 103 99 95 88 88 85 82 80 77 77 77 82 86 87 87 86 84 80 76 75 74 71 67 59 61 70 73 69 70 72 71 72 69 72 73 73 66 73 82 75
137 153 153 152 142 144 144 136 128 127 128 126 126 125 119 128 130 125 118 115 124 116 114 116 115 119 111 101 106 103 106 105 102 102 101 101 101 99 100 100 101 101 99 96 96 96 93 89 87 84 81 79 76 73 72 76 84 93 93 91 87 84 80 78 74 69 62 55 50 43 27 50 70 71 72 72 73 68 60 66 68 66 65 67 68
138 149 155 147 140 146 150 135 130 132 133 130 122 120 122 120 123 120 121 122 122 117 118 117 120 118 115 108 106 106 103 106 106 103 103 103 103 103 103 102 101 100 102 98 91 88 87 85 83 81 79 76 71 67 66 72 86 96 96 92 88 87 85 82 79 70 64 57 52 50 47 48 72 77 73 75 76 68 68 66 68 68 56 59 71
142 149 150 141 138 151 155 135 135 136 138 134 129 125 128 126 127 122 118 123 125 124 116 117 116 112 113 116 115 110 106 104 104 104 102 104 103 105 105 103 101 101 97 95 93 89 86 84 82 79 76 74 70 65 62 65 84 97 97 94 92 91 90 88 81 73 67 60 53 51 48 44 54 80 81 75 72 66 63 67 68 68 61 51 53
140 149 144 140 138 153 151 141 141 145 140 132 136 134 132 134 131 124 122 125 128 122 121 116 118 119 111 94 98 109 109 107 103 105 108 105 103 103 101 103 104 101 100 98 96 93 89 88 85 82 78 74 69 64 63 68 83 100 101 98 97 96 94 91 86 76 66 59 59 57 57 53 34 45 71 71 71 70 68 65 65 66 63 57 58
130 143 146 138 140 153 145 141 148 144 135 138 140 140 138 132 120 128 130 127 127 127 124 124 122 120 119 120 118 109 108 108 106 104 103 101 103 103 103 101 104 104 103 102 99 96 94 92 87 85 81 77 72 68 66 69 78 94 104 103 100 99 98 94 86 79 72 68 63 59 58 44 37 47 71 71 65 61 61 64 64 65 64 65 57
138 147 145 141 147 150 149 143 149 144 143 144 145 146 141 139 131 130 136 132 128 129 127 124 124 123 108 99 105 115 115 112 110 107 104 105 104 105 105 107 108 107 105 104 101 100 97 94 90 87 85 80 75 71 69 70 73 82 99 107 106 105 103 98 91 80 71 73 80 89 75 58 58 69 74 76 70 68 65 52 51 63 72 65 54
145 145 148 149 152 152 150 151 153 151 143 146 151 149 145 144 141 139 140 135 133 132 127 126 127 121 120 120 116 115 116 113 110 110 111 111 109 106 108 111 109 109 107 104 103 101 99 95 90 87 83 81 76 72 70 70 72 81 98 107 111 111 108 99 92 89 85 74 55 43 70 75 73 80 73 87 73 75 80 77 82 70 74 65 61
148 151 154 154 158 154 154 154 159 155 146 147 154 153 149 147 145 142 144 137 135 132 131 131 126 123 119 119 119 122 121 116 115 114 111 110 111 110 111 110 110 110 107 104 103 102 99 94 89 85 82 79 75 71 67 68 71 80 96 108 109 106 100 92 84 79 77 76 73 54 51 50 59 82 77 85 83 86 95 102 90 87 74 72 67
152 156 162 159 162 157 158 154 158 157 151 151 157 156 151 150 149 146 145 140 139 139 137 132 128 127 127 124 126 125 125 121 120 119 119 117 113 112 110 110 111 110 108 105 104 103 101 96 90 84 80 76 75 69 67 65 67 74 82 91 102 103 97 92 89 81 76 72 66 52 38 44 55 65 75 74 71 70 65 59 52 65 70 74 70
156 160 163 165 161 161 155 154 158 167 158 156 156 153 154 156 154 152 147 144 142 143 141 136 135 134 132 130 133 131 127 124 123 123 123 120 118 118 118 116 114 112 111 111 109 107 104 99 92 86 82 77 74 70 67 64 65 65 70 82 94 103 104 96 95 85 75 69 65 54 46 41 65 76 75 73 68 64 63 58 53 59 65 58 58
157 162 165 162 162 163 156 157 161 157 155 160 152 153 158 161 157 157 150 145 144 146 143 141 140 136 133 135 135 134 132 129 128 124 123 126 125 123 121 120 118 118 119 117 115 113 108 102 96 92 87 82 79 73 72 68 65 65 73 87 98 106 100 88 85 83 80 74 60 41 19 13 95 75 67 77 72 67 65 60 55 58 56 58 58
159 161 163 159 163 160 160 160 154 149 154 149 153 156 162 162 159 155 153 146 149 148 145 143 142 140 140 139 137 138 134 133 131 130 127 128 131 128 127 127 127 126 124 121 117 116 112 107 102 97 93 88 85 83 82 75 69 68 76 79 80 94 94 96 91 95 89 80 67 50 18 356 69 87 82 68 73 72 69 64 63 53 57 58 59
157 159 157 159 156 160 157 162 153 149 148 151 148 154 158 161 160 155 154 152 151 153 147 147 146 142 143 141 141 138 137 135 127 120 121 125 130 132 134 131 133 131 130 125 123 121 114 110 106 101 97 92 92 93 90 82 74 73 70 77 78 89 100 104 98 85 85 79 66 52 9 338 73 71 87 77 65 69 69 69 58 55 57 52 50
154 154 156 160 157 154 157 156 157 150 149 150 151 153 151 153 152 157 163 159 155 150 149 148 147 142 142 132 129 126 126 123 119 118 117 119 124 124 130 136 134 134 132 130 125 121 118 113 109 105 101 97 96 97 94 86 77 68 63 71 79 95 112 113 104 96 80 73 71 37 4 350 101 92 76 80 82 67 76 68 66 54 50 50 42
155 156 160 162 159 157 156 153 157 152 154 150 149 152 152 153 157 157 164 166 151 150 148 144 128 116 122 124 121 123 120 117 114 111 106 108 109 115 124 130 134 134 133 130 127 124 120 116 112 108 102 97 94 93 88 80 70 63 62 62 70 91 116 114 108 101 89 76 48 24 21 351 106 101 87 89 77 70 65 70 68 52 41 35 27
157 159 161 162 166 161 160 154 159 158 155 152 152 154 154 157 159 162 167 162 149 147 139 126 126 129 127 133 133 127 124 120 117 115 114 110 109 108 119 132 137 138 137 135 132 131 125 123 118 115 108 100 93 86 80 68 63 63 57 58 70 84 108 107 103 94 90 75 53 45 24 53 62 58 54 78 80 74 58 69 45 40 14 8 344
163 161 165 170 167 168 164 164 165 163 162 160 160 157 158 160 162 166 167 155 147 144 139 136 136 133 135 132 129 126 125 124 121 120 122 119 119 125 133 140 143 144 144 142 137 136 135 130 129 126 125 124 116 103 85 73 62 48 47 46 70 92 107 114 119 116 117 124 117 68 45 40 87 82 69 74 91 87 49 33 38 14 3 360 357
173 175 170 174 172 170 170 174 172 168 167 165 163 161 165 162 165 166 162 156 150 148 144 141 138 138 136 136 128 125 128 130 124 128 123 125 131 133 135 138 144 148 148 146 145 145 144 142 143 145 149 141 111 87 62 51 55 48 26 30 62 78 116 126 134 139 142 153 132 109 76 38 60 76 74 61 43 36 41 16 17 3 5 8 13
179 182 185 175 176 178 175 178 176 174 170 168 169 166 167 165 165 167 161 160 155 148 146 151 149 149 146 143 141 142 140 138 137 130 128 135 136 134 128 117 126 135 142 148 152 150 153 156 162 164 164 137 88 38 13 6 9 32 20 11 42 82 125 136 140 151 160 182 157 152 118 97 67 61 57 60 47 40 29 11 11 1 23 12 20
188 187 192 185 180 180 181 180 179 178 171 172 174 169 170 165 164 167 167 162 162 157 160 159 161 158 162 157 153 153 150 147 145 141 137 138 144 140 135 126 117 112 114 127 136 150 161 175 180 170 158 119 103 50 357 22 20 356 356 359 355 88 140 146 162 167 182 187 175 176 147 140 141 104 8 7 35 30 6 6 6 12 19 23 16
187 188 183 190 185 185 186 183 182 180 174 177 175 173 174 172 172 168 168 168 168 169 166 168 169 169 168 165 160 158 152 146 144 142 134 129 135 143 142 141 142 140 138 131 133 138 177 207 188 147 144 143 167 310 310 353 40 318 315 318 326 332 108 204 168 184 186 209 192 207 171 152 144 165 308 303 356 337 3 7 7 16 16 29 28
181 178 185 194 193 186 186 189 187 184 180 178 176 179 176 175 177 172 169 170 173 176 174 175 176 177 173 169 163 155 149 145 148 144 149 143 135 138 137 134 127 146 144 149 157 171 195 249 257 124 193 209 216 257 286 282 254 250 272 255 263 265 326 158 146 186 208 201 210 207 177 191 178 159 245 356 329 21 24 15 13 6 13 15 24
184 187 198 192 195 192 187 188 189 190 187 182 181 177 171 180 182 179 172 175 179 180 182 181 183 182 176 174 158 156 154 153 162 164 162 160 158 157 146 130 154 163 153 169 177 178 212 241 212 205 220 227 228 246 250 241 253 223 221 236 209 182 253 144 169 171 193 200 209 201 181 202 194 182 165 187 106 46 30 14 359 357 358 4 15
202 206 190 198 194 199 191 186 191 190 191 184 179 177 185 181 181 184 180 178 182 183 188 187 187 184 182 173 166 168 165 166 171 173 163 171 168 170 167 173 168 180 182 179 192 196 204 221 221 222 209 191 225 253 253 230 219 161 160 164 223 172 233 137 149 164 182 193 206 201 190 192 202 189 182 176 117 107 46 353 346 344 339 353 2
198 204 198 195 193 201 197 190 191 190 192 185 182 184 184 181 185 183 192 187 185 192 189 190 188 191 187 180 180 172 171 175 179 175 175 175 176 180 175 181 180 192 187 197 190 201 212 225 229 239 243 223 200 234 224 220 225 176 162 205 223 189 187 190 168 179 180 193 203 211 201 209 221 202 181 162 140 128 338 351 333 335 325 352 356
204 203 200 201 200 193 197 199 193 192 191 185 189 186 185 185 183 189 193 187 195 192 188 186 192 196 194 184 183 178 178 181 184 185 176 184 188 185 177 184 189 196 181 206 198 195 209 217 227 236 234 249 240 222 207 213 193 188 180 205 227 240 209 186 197 201 198 196 206 209 213 220 212 207 175 143 128 116 92 313 327 313 319 329 342
204 198 197 204 200 189 194 200 196 191 191 187 192 187 189 189 191 192 190 189 199 191 186 191 195 194 203 189 190 184 183 184 187 186 180 188 184 184 190 194 196 194 188 201 205 198 202 212 232 236 232 241 246 236 213 224 229 211 210 209 228 227 228 199 186 193 202 202 204 209 206 209 201 174 145 140 130 121 187 240 301 311 314 325 324
194 202 202 202 197 195 198 196 198 188 188 193 191 192 188 195 193 192 190 194 193 190 194 194 196 199 204 190 191 192 184 187 187 187 191 188 187 187 194 191 198 200 197 207 196 205 203 203 211 221 222 222 234 231 210 220 241 252 225 216 230 232 243 233 231 198 192 200 205 205 208 193 173 144 156 158 148 158 174 176 215 320 322 307 324
199 205 200 195 195 202 202 196 193 187 186 196 192 193 193 194 191 191 197 195 188 194 196 197 202 202 203 196 189 192 188 190 189 190 192 190 193 192 192 189 203 201 199 203 199 207 205 208 213 221 220 211 228 235 223 211 238 248 239 233 244 235 239 237 237 239 203 203 209 204 172 177 171 161 168 163 166 176 163 154 115 74 299 303 309
211 203 195 192 201 199 201 202 192 190 188 193 194 195 192 192 190 195 195 189 193 195 197 200 201 200 203 203 192 191 191 188 193 192 192 193 193 194 195 199 201 198 199 203 198 201 210 211 220 218 226 220 225 236 230 227 237 247 233 242 227 238 233 221 227 229 217 206 201 189 175 177 172 172 174 172 174 172 161 145 129 111 61 326 311
201 193 189 202 200 198 200 198 199 196 195 192 192 193 193 194 191 193 191 188 194 197 202 198 195 195 197 205 196 193 190 193 187 196 193 194 196 197 197 202 201 195 194 195 198 193 202 201 217 200 218 203 216 228 213 235 243 249 238 238 220 231 228 227 228 219 221 210 195 184 177 181 178 171 175 177 169 163 163 155 137 113 89 343 300
193 192 197 200 192 197 192 199 197 200 197 198 193 193 191 193 189 189 191 191 194 200 201 199 196 194 192 203 201 195 193 191 191 189 197 195 194 198 200 203 195 190 186 193 193 200 198 205 199 206 215 216 221 224 204 218 225 229 230 221 221 229 230 231 236 235 223 219 181 177 178 185 175 167 176 172 168 163 160 152 136 119 104 330 283
198 199 198 189 196 197 194 198 195 200 200 200 198 193 191 193 191 187 188 191 193 199 200 200 197 191 194 202 203 199 197 194 190 190 195 197 195 196 199 194 193 190 196 191 192 201 204 211 210 197 206 224 216 230 207 216 219 225 223 210 223 222 223 231 236 238 237 228 189 173 174 179 182 185 174 162 156 157 146 140 136 130 109 273 253
202 195 193 192 198 198 196 199 198 200 200 200 200 199 192 193 192 189 192 191 195 197 197 197 195 193 194 202 203 201 201 197 194 192 194 198 199 199 197 194 189 193 197 198 201 205 199 208 216 211 201 212 210 218 212 210 218 223 227 219 224 221 224 224 230 229 230 222 203 184 177 183 177 170 169 157 158 152 142 137 134 131 136 341 308
206 201 195 193 197 195 198 202 203 201 200 200 201 200 199 195 195 196 194 199 200 197 196 191 197 196 192 201 201 202 202 201 198 194 198 199 199 198 195 194 190 195 200 201 211 205 208 201 215 213 205 204 209 209 216 212 216 228 233 230 233 222 228 228 228 230 221 222 205 189 193 179 170 172 168 165 160 150 143 137 135 139 131 78 11
205 205 201 201 198 197 198 203 201 198 201 201 201 202 199 200 201 199 202 206 206 203 196 200 201 198 199 197 196 201 204 203 200 196 197 195 198 199 195 195 190 196 199 206 212 208 209 209 211 216 215 215 206 208 209 206 219 230 235 238 240 232 230 228 225 224 219 217 203 199 168 175 172 170 168 164 160 154 148 153 149 139 126 104 73
202 201 203 202 204 202 202 203 203 196 196 195 190 197 196 197 199 204 210 212 208 203 204 206 202 207 204 197 196 199 203 206 203 198 198 193 196 198 200 194 196 195 202 207 212 207 207 208 218 210 212 231 237 221 208 205 228 237 244 256 248 246 243 229 226 223 220 215 205 172 186 177 171 165 167 166 163 161 161 163 156 147 134 117 103
202 199 199 202 202 202 197 205 201 195 191 191 193 193 196 198 203 205 211 204 204 201 206 208 208 210 205 205 200 201 201 205 206 198 201 197 198 197 200 202 200 201 204 212 209 210 209 207 211 204 206 216 230 213 215 180 201 258 259 264 271 243 235 233 234 229 220 214 190 181 172 161 169 168 175 167 167 167 169 163 157 146 140 130 113
207 199 202 203 201 201 201 207 196 198 198 196 195 196 198 198 198 206 204 200 197 199 208 206 209 208 207 208 207 204 203 204 204 204 202 199 199 201 202 204 201 207 210 210 208 208 206 208 202 215 217 212 223 195 201 147 221 212 218 273 275 272 241 238 244 243 218 200 187 181 169 169 170 174 166 168 169 172 172 162 157 148 148 144 140
202 199 204 201 202 202 205 202 199 200 203 199 195 201 200 203 201 206 198 207 211 211 214 211 209 212 213 211 208 207 205 207 203 204 205 204 206 203 206 203 206 203 206 210 208 209 206 207 202 207 211 226 226 207 196 191 205 170 146 360 259 263 296 279 248 241 216 199 187 187 179 178 178 173 169 161 165 173 167 164 161 158 160 162 155
206 209 207 204 203 205 204 200 200 201 204 204 205 206 202 201 206 197 198 202 205 199 205 203 210 216 220 212 214 209 206 209 204 205 210 209 207 209 205 206 208 204 205 207 207 212 206 208 207 211 200 213 212 223 202 199 185 134 203 215 214 156 294 246 229 250 199 194 187 195 180 187 175 163 159 168 174 163 164 168 169 169 170 170 165
208 208 204 204 205 205 203 200 200 200 202 202 204 201 188 190 189 163 153 185 135 178 193 216 212 212 214 211 214 204 206 210 207 208 209 213 210 211 209 210 210 208 207 211 210 211 206 207 204 205 204 208 212 214 212 197 204 199 169 127 122 199 229 249 126 272 142 179 222 197 200 180 174 176 178 182 158 160 158 169 172 172 174 173 173
212 211 205 208 206 207 204 203 204 203 203 202 200 192 195 191 181 185 189 196 207 195 201 210 207 204 210 210 206 204 207 210 209 209 209 209 212 210 210 211 213 210 209 214 215 211 211 208 207 206 211 211 210 202 218 211 212 209 211 208 155 181 183 220 119 265 341 229 188 200 203 196 184 177 183 166 169 171 169 167 172 176 177 178 180
217 207 207 210 209 208 204 202 202 204 203 199 189 190 198 199 198 200 202 202 208 213 215 220 213 214 205 204 208 204 208 208 211 210 209 209 211 209 210 212 214 214 211 214 217 214 211 211 205 209 213 206 203 216 213 207 206 236 223 225 221 129 148 126 209 59 319 294 187 191 223 212 197 184 181 183 177 169 183 172 177 176 180 182 179
213 203 208 208 207 208 203 203 205 205 201 196 190 192 197 200 203 207 210 213 213 218 211 217 213 199 204 210 204 208 208 211 211 211 211 209 210 212 210 213 215 215 211 216 219 217 215 214 210 213 212 207 205 215 216 195 195 220 207 223 231 208 208 162 148 172 175 186 245 259 249 200 207 214 194 181 182 183 175 188 183 180 182 187 180
211 205 208 206 206 207 207 205 207 204 201 194 194 195 199 199 203 206 214 219 220 225 214 210 210 204 208 209 209 211 210 213 214 213 211 212 209 213 211 215 216 216 214 220 221 218 216 213 210 210 213 214 213 217 216 213 206 218 172 223 221 230 226 230 189 167 183 205 252 199 204 152 221 232 218 202 195 183 183 185 186 182 181 185 186
212 211 211 206 206 206 207 205 209 204 200 197 197 199 200 200 205 208 213 215 214 219 207 207 206 200 213 210 211 212 211 212 215 215 215 213 212 211 214 217 218 218 216 222 221 220 220 217 215 213 214 217 216 215 219 221 214 214 201 188 205 216 229 240 221 204 262 209 221 200 194 189 210 221 193 205 196 195 189 184 182 185 183 186 185
214 208 208 206 207 206 207 209 211 205 199 199 197 201 200 202 208 208 211 213 211 212 213 216 205 204 212 213 210 213 209 213 210 216 217 213 213 211 214 217 217 217 218 220 220 220 219 219 219 218 218 218 218 218 223 230 221 213 208 199 206 201 207 215 217 206 204 220 237 234 197 203 211 209 214 198 196 196 191 186 186 189 187 185 184